STARLINK-37360, 68901

Orbit data source: Space-Track

STARLINK-37360, 68901 is a payload satellite owned by SpaceX/Seattle (US) in SSO that was launched on Thu, 30 Apr 2026 UTC via an FALCON 9 launch vehicle from the Air Force Western Test Range (AFWTR). Payload-class satellites include a variety of spacecraft equipped with specific instruments for various scientific and technological missions. These include communications satellites like Starlink; space stations such as the ISS; scientific satellites like the Hubble; Earth observation satellites from companies like Planet Labs, Umbra, and HawkEye 360; GPS; miniature CubeSats for education and research; and military/defense satellites.

Loading next visibility...
Identifier
68901, 2026-097G
Orbit
SSO
Country
Flag of USUS
Related business
Manufacturer
SpaceX/Seattle
Mission
Operational spacecraft
Bus & Motor
STARLINK V2MO, Unknown motor
Mass
575 kg wet, ~530 kg dry
Launch date (UTC)
2026-04-30 (3 weeks ago)
Launch vehicle
FALCON 9
Launch site
Air Force Western Test Range (AFWTR)
Object type
Payload
Rocket body
Debris
Shape & HBR
Unknown
Radar Cross Section
RCS unknown

Expand to show TLE details & history
Last TLE update: 9 hours ago

TLE from 9 hours ago
0 STARLINK-37360
1 68901U 26097G   26140.58335648 -.02962729  00000-0 -55582-1 0  9998
2 68901  97.2851 336.3094 0001562  68.5672 291.5184 15.52639356  4485
Epoch: 2026-05-20T14:00Z
TLE epoch observation values (Epoch: 2026-05-20T14:00:01.999Z)
Latitude
-0.05633°
Longitude
-111.9326°
Altitude
411.78 km
Speed
7.664 km/s
True Right ascension
22h 25m 15s
True Declination
0° 03' 22"
Sunlit
Object was in daylight at epoch
Visualization orbit readout
Latitude
Unknown
Longitude
Unknown
Altitude
Unknown
Speed
Unknown
Apparent Right ascension
Unknown
Apparent Declination
Unknown
Sunlit
N/A
Visualization observer readout
Local Sidereal Time
07:28:27
Azimuth
Unknown
Elevation
Unknown
Doppler factor
Unknown
Orbital elements
Apogee altitude
407 km
Perigee altitude
404.881 km
Semi-major axis
6,784.078 km
Eccentricity
0.00016
Inclination
97.2851°
RAAN
336.3094°
Arg. of periapsis
68.5672°
True anomaly
291.50175°
Mean anomaly
291.5184°
Eccentric anomaly
291.51007°
Mean motion
3.88425 °/min
Orbital period
92.68 mins
BSTAR
-0.055582
Loading maneuver chart data...
Computing Atmospheric mass density...
Loading historical data...
Loading historical data...
Loading historical data...
Loading historical data...
Loading historical data...
Loading historical data...
Loading historical data...

Documentation

Showing up to 5 results
|